{"data":{"norad_id":82961,"intl_designator":"","name":"UNKNOWN","alt_names":[],"object_type":"UNKNOWN","status":"UNKNOWN","operator":null,"country":null,"launch_date":null,"launch_site_code":null,"launch_vehicle":null,"mission":null,"orbit_class":"UNKNOWN","rcs_meters":null,"size_class":null,"mass_kg":null,"dimensions":null,"purposes":[],"wikipedia_slug":null,"has_3d_model":false,"image_url":null,"decayed_at":null,"tle_current":{"epoch":"2026-05-23T21:04:04.044576Z","epoch_age_seconds":162258,"freshness":"FRESH","line1":"1 82961U          26143.87782459  .00006201  00000+0  98022-2 0  9993","line2":"2 82961  99.7739 294.9868 0360155 342.2988  16.5849 13.27176679577195","mean_motion":13.27176679,"eccentricity":0.0360155,"inclination_deg":99.7739,"raan_deg":294.9868,"arg_perigee_deg":342.2988,"mean_anomaly_deg":16.5849,"bstar":0.0098022,"rev_number":57719,"period_min":108.50100237483,"perigee_km":886.0340903668,"apogee_km":1428.8286143557,"semimajor_km":7535.5683523613,"source":"CELESTRAK","updated_at":"2026-05-25T13:38:11.422756Z"}}}